Regional Weather Roundup
Issued by NWS

Home | Current Version | Previous Version | Text Only | Print | Product List | Glossary On
Versions: 1 2 3 4 5 6 7 8 9 10 11 12 13 14 15 16 17 18 19 20 21 22 23 24 25 26 27 28 29 30 31 32 33 34 35 36 37 38 39 40 41 42 43 44 45 46 47 48 49 50
000
ASUS43 KLMK 021510
RWRKY
KENTUCKY REGIONAL WEATHER ROUNDUP
NATIONAL WEATHER SERVICE LOUISVILLE KY
1100 AM EDT THU OCT 02 2014

NOTE "FAIR" INDICATES FEW OR NO CLOUDS BELOW 12,000 FEET
WITH NO SIGNIFICANT WEATHER AND/OR OBSTRUCTIONS TO VISIBILITY.

KYZ001>023-026-027-061>063-070>075-021600-
WESTERN AND SOUTH CENTRAL KENTUCKY

CITY           SKY/WX    TMP DP  RH WIND       PRES   REMARKS
PADUCAH        FAIR      80  69  69 S8        29.94F
HENDERSON      NOT AVBL
OWENSBORO      FAIR      79  62  55 S14       29.98S
HOPKINSVILLE   FAIR      78  65  64 S8        30.00F
BOWLING GREEN  FAIR      79  62  56 S9        30.03F
GLASGOW        FAIR      77  61  56 SW8       30.04F
$$

KYZ024-025-028>034-038-045-046-053-021600-
NORTH CENTRAL KENTUCKY

CITY           SKY/WX    TMP DP  RH WIND       PRES   REMARKS
LOUISVILLE/SDF FAIR      77  60  55 S9        30.01F
LOUISVILLE/LOU FAIR      75  60  59 S9        30.02F
FORT KNOX      FAIR      76  62  61 S10       30.01F
$$

KYZ035>037-039>044-047>052-055>060-089>105-021600-
NORTHEAST KENTUCKY

CITY           SKY/WX    TMP DP  RH WIND       PRES   REMARKS
LEXINGTON      FAIR      77  59  53 S13       30.06F
COVINGTON      PTSUNNY   75  58  55 SW10      30.03F
FRANKFORT      FAIR      75  59  57 S9        30.04F
$$

KYZ054-064>069-076>088-106>120-021600-
SOUTHEAST KENTUCKY

CITY           SKY/WX    TMP DP  RH WIND       PRES   REMARKS
JACKSON        FAIR      71  57  61 CALM      30.12S
LONDON         PTSUNNY   72  59  63 VRB5      30.11F
SOMERSET       FAIR      72  57  60 S5        30.10F
MIDDLESBORO    FAIR      63  58  84 CALM      30.14F
MONTICELLO     FAIR      78  62  57 S7        30.10F
$$



USA.gov is the U.S. government's official web portal to all federal, state and local government web resources and services.